Total_Precipitation_Accumulation
0.14 0.38 0.74 1.13 1.99 2.21 1.54 0.92 0.69 0.61 0.61 0.54 0.48 0.51 0.69 1.05 1.53 2.31 1.94 1.42 1.46 1.63 1.86 2.18 2.32 2.09 1.95 1.85 1.98 1.99 1.87 1.82 1.74 1.68 1.59 1.52 1.40 1.18 1.02 0.97 0.98 1.03 1.01 0.89 0.94 0.97 0.90 0.99 1.12
0.32 0.59 0.86 1.41 2.04 1.65 1.20 0.80 0.66 0.51 0.48 0.50 0.60 0.67 0.65 0.80 0.79 1.10 1.53 1.56 1.24 1.33 1.65 1.69 1.99 1.92 1.83 1.77 1.87 1.80 1.70 1.60 1.63 1.55 1.45 1.39 1.35 1.14 0.91 0.85 0.89 0.93 0.90 0.90 0.97 0.98 0.97 0.98 1.06
0.49 0.69 1.02 1.57 1.47 0.95 0.75 0.56 0.45 0.44 0.48 0.59 0.70 0.76 0.79 0.92 0.86 1.18 1.49 1.30 1.16 1.21 1.49 1.76 1.87 1.71 1.66 1.59 1.63 1.59 1.55 1.51 1.57 1.48 1.41 1.31 1.24 1.08 0.92 0.85 0.85 0.89 0.91 0.89 0.93 1.04 1.05 1.03 1.05
0.60 0.83 0.99 1.20 0.95 0.47 0.31 0.31 0.33 0.46 0.66 0.85 0.90 0.94 0.96 0.91 0.92 1.18 1.33 1.09 1.04 1.00 1.14 1.48 1.62 1.53 1.54 1.45 1.38 1.47 1.50 1.52 1.54 1.45 1.33 1.32 1.26 1.19 0.99 0.86 0.84 0.91 0.97 0.98 1.00 1.12 1.13 1.03 1.04
0.54 0.89 1.18 0.97 0.63 0.38 0.25 0.24 0.35 0.52 0.72 0.87 0.94 1.15 1.38 1.24 1.01 1.16 1.13 1.02 0.94 0.94 1.03 1.25 1.51 1.43 1.39 1.34 1.31 1.41 1.48 1.49 1.43 1.38 1.21 1.25 1.25 1.14 0.96 0.89 0.87 0.85 0.93 1.04 1.07 1.12 1.11 1.08 1.13
0.70 1.01 0.97 0.72 0.45 0.28 0.26 0.28 0.36 0.50 0.69 0.87 1.19 1.41 1.67 1.61 1.39 1.30 1.14 1.21 1.11 0.94 0.97 1.20 1.47 1.42 1.37 1.35 1.37 1.48 1.53 1.40 1.32 1.29 1.14 1.11 1.13 1.08 1.00 0.97 0.96 0.87 0.93 1.07 1.11 1.10 1.03 1.07 1.19
0.73 0.80 0.62 0.50 0.39 0.28 0.26 0.28 0.37 0.55 0.71 0.96 1.30 1.53 1.66 1.74 1.63 1.48 1.34 1.42 1.53 1.29 1.24 1.28 1.30 1.31 1.38 1.54 1.62 1.66 1.60 1.39 1.31 1.30 1.16 1.04 1.01 1.01 0.98 1.05 1.05 0.97 1.01 1.11 1.18 1.14 1.12 1.16 1.26
0.45 0.53 0.42 0.29 0.35 0.32 0.25 0.27 0.40 0.62 0.82 1.03 1.26 1.48 1.76 1.63 1.57 1.66 1.92 2.14 2.24 2.05 1.88 1.64 1.48 1.54 1.44 1.51 1.72 1.83 1.55 1.35 1.30 1.32 1.21 1.14 1.19 1.20 1.23 1.19 1.17 1.24 1.34 1.40 1.45 1.37 1.30 1.38 1.45
0.29 0.43 0.33 0.19 0.22 0.27 0.24 0.28 0.37 0.45 0.68 0.95 1.15 1.28 1.31 1.36 1.61 1.94 2.38 2.58 2.50 2.54 2.33 2.05 1.85 1.66 1.66 1.66 1.73 1.98 1.73 1.51 1.57 1.72 1.63 1.65 1.98 1.89 1.93 1.56 1.52 1.68 1.86 1.94 1.98 1.93 1.80 1.70 1.63
0.25 0.31 0.19 0.10 0.08 0.12 0.18 0.26 0.34 0.51 0.99 1.58 1.55 1.25 1.09 1.33 1.68 1.96 2.32 2.73 2.45 2.57 2.27 2.13 2.11 1.81 1.74 1.84 2.22 2.65 2.26 2.07 2.11 2.32 2.20 2.48 2.57 2.45 1.82 1.82 2.11 2.30 2.61 2.73 2.76 2.79 2.46 2.10 1.93
0.19 0.16 0.11 0.05 0.04 0.04 0.09 0.19 0.28 0.58 1.10 1.80 1.98 1.54 1.38 1.50 1.89 1.89 2.23 2.62 2.59 2.47 2.36 2.09 2.34 2.10 2.14 2.44 2.52 2.71 2.75 2.59 2.55 2.60 2.56 2.80 2.53 2.19 2.09 2.42 2.79 3.02 3.16 3.31 3.33 3.25 2.73 2.69 2.89
0.11 0.09 0.06 0.04 0.04 0.04 0.13 0.23 0.34 0.50 0.99 1.30 1.29 1.21 1.35 1.56 1.91 2.11 2.23 2.58 2.58 2.40 2.37 2.37 2.50 2.56 2.72 2.71 2.60 2.51 2.29 2.25 2.39 2.54 2.48 2.65 2.72 2.72 2.69 2.89 3.01 3.25 3.60 3.96 3.86 3.84 3.54 3.48 3.23
0.08 0.11 0.10 0.08 0.07 0.09 0.15 0.20 0.33 0.53 0.72 0.80 0.79 0.98 1.39 1.68 2.08 2.43 2.82 3.05 3.08 2.97 2.87 2.94 3.12 3.08 3.03 2.96 2.68 2.31 2.15 2.00 2.04 2.15 2.24 2.20 2.53 2.83 2.85 2.72 2.80 2.73 2.93 3.37 3.95 3.85 4.02 3.94 3.54
0.08 0.08 0.10 0.13 0.09 0.14 0.16 0.19 0.38 0.67 0.69 0.74 0.90 1.15 1.53 1.96 2.34 2.60 3.40 3.82 4.02 3.93 3.77 3.62 3.72 3.34 3.09 2.96 2.67 2.47 2.18 2.17 2.06 1.97 1.91 2.08 2.33 2.62 2.59 2.56 2.80 2.83 2.73 2.89 3.36 3.49 3.89 3.87 3.50
0.12 0.15 0.15 0.16 0.10 0.12 0.17 0.39 0.58 0.69 0.88 0.93 1.10 1.30 1.61 2.19 2.67 3.14 3.69 4.46 4.88 5.05 4.68 4.11 3.85 3.56 3.32 3.10 2.74 2.45 2.29 2.09 2.21 2.17 1.99 2.02 2.12 2.32 2.31 2.41 2.43 2.49 2.39 2.47 2.69 2.88 3.15 3.13 3.02
0.18 0.28 0.35 0.21 0.13 0.13 0.21 0.66 0.80 0.67 1.01 1.36 1.30 1.55 1.92 2.45 2.93 3.61 4.32 5.17 5.69 5.84 5.29 4.57 3.86 3.90 3.79 3.52 2.89 2.48 2.30 2.20 2.14 2.07 1.90 1.77 1.84 1.84 1.95 1.96 1.93 1.95 1.82 1.95 2.31 2.38 2.61 2.84 2.89
0.19 0.26 0.33 0.31 0.18 0.17 0.26 0.68 0.86 0.69 0.91 1.23 1.45 1.67 2.08 2.45 2.78 3.41 4.06 4.89 5.49 5.97 5.81 5.20 5.04 4.82 4.16 3.47 2.88 2.49 2.29 2.25 2.04 1.94 1.85 1.73 1.63 1.63 1.78 1.90 1.93 1.65 1.65 1.75 1.64 2.08 2.33 2.56 2.61
0.18 0.19 0.26 0.35 0.25 0.25 0.34 0.55 0.82 0.87 1.10 1.41 1.54 1.64 1.89 2.09 2.41 2.89 3.39 3.86 4.46 4.94 4.85 4.81 4.96 4.53 3.93 3.31 2.87 2.60 2.35 2.09 1.94 1.87 1.87 1.76 1.69 1.70 1.90 1.74 1.67 1.52 1.81 2.04 2.11 2.42 2.37 2.29 2.33
0.14 0.15 0.22 0.29 0.26 0.33 0.46 0.60 0.81 0.98 1.25 1.53 1.52 1.46 1.54 1.76 2.04 2.31 2.67 3.03 3.25 3.42 3.54 3.84 4.05 3.80 3.35 2.97 2.52 2.34 2.28 2.06 1.87 1.79 1.64 1.75 1.67 1.85 2.07 1.82 2.07 1.82 1.83 1.96 2.00 2.18 2.16 1.97 1.92
0.11 0.13 0.22 0.29 0.25 0.30 0.45 0.74 0.90 0.99 1.04 1.18 1.30 1.22 1.31 1.60 1.63 1.75 1.92 2.24 2.39 2.61 2.91 3.24 3.46 3.30 2.77 2.57 2.40 2.28 2.23 2.06 2.01 1.93 1.93 1.73 1.69 1.79 1.72 2.03 1.87 1.88 2.02 2.07 2.14 2.26 2.26 2.02 1.95
0.10 0.12 0.16 0.22 0.24 0.33 0.48 1.02 1.09 0.97 0.89 0.81 0.98 1.04 1.05 1.23 1.36 1.42 1.46 1.58 1.90 2.44 2.63 2.52 2.74 2.92 2.65 2.55 2.48 2.38 2.32 2.12 2.17 2.11 2.02 1.70 1.58 1.59 1.68 1.72 1.74 1.96 1.77 2.10 2.34 2.30 2.37 2.34 2.14
0.10 0.09 0.10 0.14 0.20 0.49 0.58 1.08 1.15 0.98 0.97 0.79 0.77 0.81 0.78 0.76 0.94 1.08 1.10 1.21 1.40 1.70 2.00 2.27 2.54 2.69 2.59 2.45 2.23 2.08 1.89 1.82 1.84 1.85 1.84 1.72 1.64 1.53 1.57 1.60 1.77 1.95 1.75 2.21 1.91 2.06 2.26 2.41 2.22
0.05 0.05 0.07 0.13 0.22 0.44 0.55 0.92 1.12 0.95 1.08 0.83 0.55 0.44 0.41 0.42 0.54 0.72 0.84 0.96 1.00 1.20 1.60 2.06 2.45 2.71 2.56 2.24 2.06 2.07 1.93 1.88 1.81 1.75 1.97 1.84 1.74 1.60 1.47 1.64 1.80 1.85 1.75 1.93 2.04 2.34 2.21 2.15 2.12
0.03 0.06 0.14 0.26 0.42 0.78 0.74 0.78 1.05 0.83 0.67 0.50 0.38 0.30 0.30 0.32 0.38 0.51 0.60 0.74 0.85 1.00 1.27 1.63 1.97 2.22 2.23 2.08 1.99 2.03 2.07 2.06 1.91 1.73 1.75 1.62 1.61 1.56 1.49 1.61 1.80 1.76 1.73 1.87 1.95 2.12 2.11 2.17 2.24
0.03 0.06 0.26 0.50 0.76 0.95 0.61 0.77 1.11 0.68 0.51 0.39 0.33 0.29 0.27 0.25 0.37 0.49 0.55 0.66 0.73 0.78 0.97 1.27 1.48 1.65 1.85 1.96 1.95 1.91 2.04 2.08 1.89 1.68 1.65 1.63 1.48 1.43 1.47 1.59 1.84 1.78 1.84 1.89 2.06 2.10 2.06 2.11 2.15
0.04 0.05 0.13 0.23 0.37 0.55 0.61 1.22 1.07 0.51 0.36 0.32 0.27 0.26 0.23 0.24 0.33 0.45 0.54 0.60 0.61 0.63 0.81 0.99 1.18 1.40 1.65 1.81 1.88 1.87 1.82 1.70 1.65 1.75 1.66 1.63 1.59 1.53 1.48 1.59 1.63 1.67 1.76 1.83 2.24 2.04 1.94 2.01 1.98
0.04 0.05 0.07 0.09 0.13 0.38 0.71 0.91 0.63 0.35 0.33 0.35 0.31 0.30 0.29 0.32 0.42 0.48 0.62 0.69 0.60 0.62 0.77 0.84 1.02 1.21 1.37 1.61 1.76 1.71 1.71 1.59 1.58 1.64 1.58 1.52 1.65 1.64 1.57 1.52 1.54 1.63 1.79 1.97 2.16 2.06 2.09 2.16 1.96
0.05 0.04 0.05 0.06 0.11 0.28 0.57 0.81 0.84 0.56 0.42 0.37 0.37 0.38 0.37 0.41 0.54 0.63 0.66 0.70 0.66 0.66 0.78 0.87 1.00 1.11 1.17 1.32 1.41 1.34 1.54 1.59 1.70 1.67 1.57 1.49 1.50 1.55 1.60 1.63 1.62 1.71 1.81 2.00 2.17 2.16 2.29 2.35 2.16
0.06 0.05 0.04 0.05 0.07 0.16 0.42 0.62 0.62 0.56 0.51 0.39 0.36 0.43 0.50 0.49 0.62 0.67 0.66 0.69 0.65 0.68 0.73 0.77 0.92 1.04 1.09 1.23 1.30 1.35 1.45 1.53 1.60 1.60 1.59 1.58 1.58 1.61 1.62 1.69 1.73 1.75 1.81 1.99 2.14 2.04 2.27 2.37 2.38
0.08 0.10 0.09 0.08 0.07 0.10 0.21 0.35 0.35 0.39 0.45 0.39 0.38 0.49 0.57 0.43 0.48 0.63 0.70 0.76 0.59 0.64 0.71 0.74 0.81 0.89 0.97 1.17 1.34 1.42 1.56 1.60 1.53 1.52 1.70 1.75 1.73 1.73 1.72 1.79 1.90 1.88 1.90 2.02 2.01 1.89 1.99 2.15 2.31